Site menu:

About:

weather.olc.net provides weather information from NOAA, the National Weather Service, Weather Underground, and current weather data collected outside of Orangeburg, SC near Great Branch.


Today's Forecast

Today

Today: Scattered showers and thunderstorms, mainly after 3pm.  Mostly sunny, with a high near 91. Heat index values as high as 100. South wind 5 to 7 mph.  Chance of precipitation is 40%. New rainfall amounts of less than a tenth of an inch, except higher amounts possible in thunderstorms.
Mostly Sunny
then
Scattered
T-storms
High: 91 °F

Tonight

Tonight: Scattered showers and thunderstorms, mainly before 2am.  Mostly cloudy, with a low around 72. South wind around 5 mph becoming calm  in the evening.  Chance of precipitation is 40%. New rainfall amounts of less than a tenth of an inch, except higher amounts possible in thunderstorms.
Scattered
T-storms

Low: 72 °F

Weather Almanac

Today In 2019
High: 96.0°F
Low: 72.7°F

Today in 2018
High: 93.6°F
Low: 69.7°F

Columbia Metro Airport

Aug 7th Weather Records
Astronomical Info

Sunrise:
06:41 am

Sunset:
08:17 pm
Civil Twilight    
Dawn:
06:15 am
Dusk:
08:44 pm
Moonset: 09:16 am
Moonrise: 09:55 pm
Last Qtr.Aug 11
New MoonAug 18
First Qtr.Aug 25
Full MoonSep 02
Current PhaseWaning Gibbous 85%

Regional Weather Roundup
Issued by NWS Columbia, SC


000
ASUS42 KCAE 071410
RWRCAE
REGIONAL WEATHER ROUNDUP
NATIONAL WEATHER SERVICE COLUMBIA SC
1000 AM EDT FRI AUG 07 2020

NOTE: "FAIR" INDICATES FEW OR NO CLOUDS BELOW 12,000 FEET WITH NO
SIGNIFICANT WEATHER AND/OR OBSTRUCTIONS TO VISIBILITY.

NOT ALL STATIONS ARE QUALITY CONTROLLED BY THE NATIONAL
WEATHER SERVICE. USE DATA WITH CAUTION...ESPECIALLY
DEWPOINT OBSERVATIONS.

SCZ001>056-GAZ040-063>065-077-071500-
...UPSTATE SOUTH CAROLINA...

CITY           SKY/WX    TMP DP  RH WIND       PRES   REMARKS
ANDERSON       CLOUDY    75  70  84 CALM      30.10S
LIBERTY        CLOUDY    74  74  99 CALM      30.11S
SPARTANBURG    CLOUDY    72  68  88 CALM      30.11S
CLEMSON        CLOUDY    72  68  87 CALM      30.13R
GREENVILLE     CLOUDY    75  71  87 E3        30.12S
GREENWOOD      PTSUNNY   75  72  90 CALM      30.12R
GREER          CLOUDY    73  68  84 CALM      30.12S
ROCK HILL      CLOUDY    76  70  82 CALM      30.13R
CHESTER        MOSUNNY   77  68  73 CALM      30.12S
LAURENS        PTSUNNY   77  70  78 CALM      30.11R


...CENTRAL SOUTH CAROLINA...

CITY           SKY/WX    TMP DP  RH WIND       PRES   REMARKS
COLUMBIA APT   MOSUNNY   81  73  76 S3        30.09R
COLUMBIA OWENS MOSUNNY   80  74  81 SW3       30.10R
MCENTIRE ANGB  MOSUNNY   83  74  75 CALM      30.10R
ORANGEBURG     SUNNY     81  72  74 SW6       30.10R
SUMTER SHAW    MOSUNNY   82  73  74 S2        30.12R
NEWBERRY       MOSUNNY   73  73 100 CALM      30.14R
AIKEN          PTSUNNY   78  72  84 S7        30.12R
BARNWELL       FAIR      82  73  74 VRB3      30.10S
MANNING        FAIR      81  72  74 CALM      30.10F
CAMDEN         FAIR      81  73  78 CALM      30.11R
LANCASTER      CLOUDY    77  73  88 CALM      30.11R
WINNSBORO      MOSUNNY   79  72  78 S5        30.10S


...EASTERN AND COASTAL SOUTH CAROLINA...

CITY           SKY/WX    TMP DP  RH WIND       PRES   REMARKS
MYRTLE BEACH   PTSUNNY   76  72  87 S3        30.12S
N MYRTLE BCH   CLOUDY    79  74  84 S3        30.10F
CONWAY         FAIR      77  72  83 S5        30.11F
MARION           N/A     81  75  83 SW7       30.10S
HARTSVILLE     FAIR      82  75  78 CALM      30.10S
FLORENCE       SUNNY     83  71  67 SW5       30.10R
CHARLESTON APT MOSUNNY   84  74  71 CALM      30.10S
MOUNT PLEASANT FAIR      82  77  83 CALM      30.11S
WALTERBORO     SUNNY     81  72  74 CALM      30.11S
BEAUFORT       MOSUNNY   85  75  72 VRB3      30.10R
HILTON HEAD    SUNNY     82  75  78 CALM      30.11R


...EASTERN GEORGIA...

CITY           SKY/WX    TMP DP  RH WIND       PRES   REMARKS
AUGUSTA BUSH F CLOUDY    78  73  84 CALM      30.09R
AUGUSTA DANIEL CLOUDY    77  72  84 S3        30.11R
THOMSON        CLOUDY    76  74  91 SW5       30.10S
WASHINGTON     CLOUDY    73  72  94 CALM      30.10S
CLAXTON        FAIR      83  75  77 CALM      30.09F
SYLVANIA       SUNNY     79  74  84 W3        30.11S
STATESBORO     SUNNY     82  72  72 W3        30.10S
SAVANNAH       MOSUNNY   83  76  79 W3        30.10R


...SOUTHERN NORTH CAROLINA...

CITY           SKY/WX    TMP DP  RH WIND       PRES   REMARKS
CHARLOTTE      CLOUDY    74  70  87 N5        30.13R
MONROE         CLOUDY    74  70  87 CALM      30.11R
ASHEVILLE      PTSUNNY   72  67  84 CALM      30.17S

$$